Regional Weather Roundup
Issued by NWS Newport/Morehead, NC

Current Version | Previous Version | Text Only | Print | Product List | Glossary On
Versions: 1 2 3 4 5 6 7 8 9 10 11 12 13 14 15 16 17 18 19 20 21 22 23 24 25 26 27 28 29 30 31 32 33 34 35 36 37 38 39 40 41 42 43 44 45 46 47 48 49 50
000
ASUS42 KMHX 200513
RWRMHX
WEATHER ROUNDUP FOR EASTERN NORTH CAROLINA
NATIONAL WEATHER SERVICE NEWPORT/MOREHEAD CITY NC
100 AM EDT THU JUL 20 2017

NOTE: "FAIR" INDICATES FEW OR NO CLOUDS BELOW 12,000 FEET
WITH NO SIGNIFICANT WEATHER AND/OR OBSTRUCTIONS TO VISIBILITY

NCZ015>017-031-032-045>047-102-103-200600-
NORTH COAST

CITY           SKY/WX    TMP DP  RH WIND       PRES   REMARKS
EDENTON        CLEAR     79  73  82 CALM      30.08S
ELIZABETH CITY CLEAR     76  75  97 SW3       30.06F
KITTY HAWK     CLEAR     77  73  85 CALM      30.06F
MANTEO         CLEAR     78  73  83 W6        30.07F

$$

NCZ045>047-081-094-103-104-200600-
CENTRAL COAST

CITY           SKY/WX    TMP DP  RH WIND       PRES   REMARKS
FRISCO         CLEAR     77  73  87 CALM      30.07F

$$

NCZ095-097-098-100-101-200600-
SOUTHERN COAST

CITY           SKY/WX    TMP DP  RH WIND       PRES   REMARKS
BEAUFORT       CLEAR     76  76 100 CALM      30.07S
CEDAR ISLAND   NOT AVBL
JACKSONVILLE   CLEAR     74  74 100 W3        30.07S
PINEY ISLAND   PTCLDY   N/A N/A N/A SW3       30.07S
WILMINGTON     CLEAR     72  71  97 CALM      30.08R


$$

NCZ011>013-027>030-043-044-078>080-089-090>093-098-200600-
COASTAL PLAIN

CITY           SKY/WX    TMP DP  RH WIND       PRES   REMARKS
AHOSKIE          N/A     72  71  97 CALM      30.07F
CLINTON        CLEAR     71  71  98 CALM      30.09S
ELIZABETHTOWN  NOT AVBL
GOLDSBORO      CLEAR     74  74 100 CALM      30.06F
GREENVILLE     CLEAR     73  73 100 SW3       30.09S
HAVELOCK       CLEAR     73  71  93 CALM      30.08S
KENANSVILLE    CLEAR     70  70 100 CALM      30.09S
KINSTON        CLEAR     73  73  97 CALM      30.08S
NEW BERN       CLEAR     72  72 100 CALM      30.08S
RICHLANDS      CLEAR     71  71 100 CALM      30.08S
ROCKY MOUNT    CLEAR     74  73  97 CALM      30.08S
WASHINGTON     CLEAR     74  72  91 CALM      30.08S
WHITEVILLE     CLEAR     74  72  93 CALM      30.08S

$$

AMZ130-135-150-152-154-156-158-170-250-252-270-ANZ085-086-088-633-658-670-200600-
MARINE OBSERVATIONS

STATION/POSITION TIME  TEMP    WIND        PRES    WAVE   SWELL
                       AIR SEA DIR/SP/G            HT/PER HT/PER
                 (UTC) (F)     (DEG/KT/KT) (MB)    (FT/S) (FT/S)
CHESAPEAKE LIGHT NOT AVBL
64 E VA BEACH    0450   80 80  240/ 10/ 10 1018.6    3/16   2/16
DUCK             0448   80 61  240/  8/ 11 1017.7
2 E DUCK         0500      68                N/A     2/15   2/15
OREGON INLET     0448          250/  6/  7   N/A
13E OREGON INLT  0448      76                N/A     3/17   3/17
HATTERAS CG      0448   79 80  230/  2/  3 1018.1
DIAMOND BUOY     0450   82 84  220/  6/  8 1018.1    2/ 7   2/ 7
CAPE LOOKOUT     0400   79     210/  4/  5 1017.9
BEAUFORT LAB     0448   79 80  230/  2/  3 1017.5
30 SE NEW RVR IN 0408   79 83  250/  6/  8 1018.3
30 SE NEW RVR IN 0443      83                N/A     2/ 8   2/17
27 SE WRIGHTSVLE 0408   81 81  230/  8/ 10 1018.2
5 SE WRIGHTSVLE  0408   79 81  270/  2/  4 1018.2
225 S CAPE HAT   0450   81 83  260/ 14/ 16 1018.9    4/ 7   3/ 7
41 SE CHARLESTON 0450   81 83  210/ 12/ 14 1018.3    2/ 8   2/ 8

$$




USA.gov is the U.S. government's official web portal to all federal, state and local government web resources and services.